Location: Le Gr�zie
(43.6000°N, 13.5000°E)
Time: 20:13:34
(UTC+00:00)

STARLINK-29 - Pass Details

Date: 09 April 2020
Orbit: 387 x 401 km, 53.0° (Epoch: 26 May)

Event Time Altitude Azimuth Distance (km) Brightness Sun altitude
Rises 18:41:38 0° 239° (WSW) 2,273 7.3 -11.0°
Reaches altitude 10° 18:43:41 10° 242° (WSW) 1,423 6.3 -11.4°
Maximum altitude 18:46:51 70° 327° (NNW) 422 3.2 -11.9°
Drops below altitude 10° 18:50:04 10° 51° (NE) 1,439 5.5 -12.4°
Enters shadow 18:50:53 - 53° (NE) 1,776 5.9 -12.6°
